Location: Newark
(43.4306°N, 0.3089°E)
Time: 11:24:17
(UTC+00:00)

S-56A Canister/Altair - Pass Details

Date: 24 August 2019
Orbit: 633 x 2499 km, 38.9° (Epoch: 20 October)

Event Time Altitude Azimuth Distance (km) Brightness Sun altitude
Rises 21:01:34 0° 244° (WSW) 3,308 11.1 -22.0°
Reaches altitude 10° 21:04:20 10° 237° (WSW) 2,214 10.1 -22.4°
Enters shadow 21:07:38 33° 206° (SSW) 1,115 8.2 -22.8°
Maximum altitude 21:08:53 40° 168° (SSE) 954 - -23.0°
Drops below altitude 10° 21:13:02 10° 98° (E) 2,015 - -23.5°
Sets 21:15:26 0° 91° (E) 2,970 - -23.8°
